Irkutsk, Russia

9:54 AM +08 on August 17, 2018 (GMT +0800)
Irkutsk

Weather History for UIII - August, 2018

Change the Weather History Date:

Friday, August 10, 2018

  Actual Average Record
Temperature  
Mean Temperature 62 °F -  
Max Temperature 66 °F - - ()
Min Temperature 57 °F - - ()
Degree Days  
Heating Degree Days 3    
Growing Degree Days 12 (Base 50)    
Moisture  
Dew Point 60 °F    
Average Humidity 94    
Maximum Humidity 100    
Minimum Humidity 68    
Precipitation  
Precipitation 0.00 in - - ()
Sea Level Pressure  
Sea Level Pressure 29.89 in    
Wind  
Wind Speed 4 mph ()    
Max Wind Speed 9 mph    
Max Gust Speed -    
Visibility 5.3 miles    
Events Fog , Rain    
T = Trace of Precipitation, MM = Missing Value Source: Averaged Metar Reports

Daily Weather History Graph

Daily Weather History Graph

Search for Another Location

Airport or City:

Astronomy

Aug. 10, 2018 Rise Set
Actual Time 5:36 AM +08 8:37 PM +08
Civil Twilight 4:57 AM +08 9:17 PM +08
Nautical Twilight 4:05 AM +08 10:08 PM +08
Astronomical Twilight 2:57 AM +08 11:15 PM +08
Moon 3:42 AM +08 (8/10) 7:59 PM +08 (8/10)
Length of Visible Light 16h 20m
Length of Day
15h 00m
Waning Crescent, 2% of the Moon is Illuminated
Aug 10
Waning Crescent
Aug 11
New
Aug 18
First Quarter
Aug 26
Full
Sep 3
Last Quarter

Hourly Weather History & Observations

Time (+08) Temp. Dew Point Humidity Pressure Visibility Wind Dir Wind Speed Gust Speed Precip Events Conditions
12:00 AM 64.4 °F 53.6 °F 68% 29.86 in 6.2 mi WSW 8.9 mph - N/A Rain Light Rain
12:30 AM 62.6 °F 59.0 °F 88% 29.86 in 6.2 mi West 8.9 mph - N/A Rain Light Rain Showers
1:00 AM 62.6 °F 59.0 °F 88% 29.86 in 6.2 mi South 4.5 mph - N/A Rain Light Rain Showers
1:30 AM 60.8 °F 60.8 °F 100% 29.83 in 6.2 mi North 6.7 mph - N/A Rain Light Rain Showers
2:00 AM 61 °F 60 °F 93% 29.84 in - Calm Calm - - Rain Light Rain Showers
2:00 AM 60.8 °F 60.8 °F 100% 29.86 in 6.2 mi SE 4.5 mph - N/A   Mostly Cloudy
2:30 AM 60.8 °F 60.8 °F 100% 29.86 in 6.2 mi SE 4.5 mph - N/A   Mostly Cloudy
3:00 AM 60.8 °F 60.8 °F 100% 29.86 in 6.2 mi Calm Calm - N/A Rain Light Rain Showers
3:30 AM 59.0 °F 59.0 °F 100% 29.86 in 6.2 mi NE 6.7 mph - N/A Rain Light Rain Showers
4:00 AM 60.8 °F 59.0 °F 94% 29.86 in 6.2 mi SSW 8.9 mph - N/A Rain Light Rain Showers
4:30 AM 60.8 °F 60.8 °F 100% 29.86 in 6.2 mi SSW 6.7 mph - N/A Rain Light Rain Showers
5:00 AM 61 °F 60 °F 94% 29.84 in - Calm Calm - - Rain Light Rain Showers
5:00 AM 60.8 °F 60.8 °F 100% 29.86 in 6.2 mi SSW 4.5 mph - N/A Rain Light Rain Showers
5:30 AM 60.8 °F 60.8 °F 100% 29.86 in 6.2 mi West 4.5 mph - N/A   Mostly Cloudy
6:00 AM 60.8 °F 60.8 °F 100% 29.86 in 6.2 mi West 4.5 mph - N/A   Overcast
6:30 AM 60.8 °F 60.8 °F 100% 29.86 in 6.2 mi WNW 4.5 mph - N/A Rain Light Rain Showers
7:00 AM 60.8 °F 60.8 °F 100% 29.86 in 3.7 mi Variable 2.2 mph - N/A Rain Light Rain Showers
7:30 AM 60.8 °F 60.8 °F 100% 29.86 in 3.1 mi Variable 2.2 mph - N/A Rain Light Rain Showers
8:00 AM 61 °F 60 °F 95% 29.86 in 6 mi NW 2.2 mph - - Rain Light Rain Showers
8:00 AM 60.8 °F 60.8 °F 100% 29.86 in 2.2 mi Variable 2.2 mph - N/A Rain Light Rain Showers
8:30 AM 60.8 °F 60.8 °F 100% 29.86 in 2.8 mi Variable 2.2 mph - N/A Rain Light Rain Showers
9:00 AM 60.8 °F 60.8 °F 100% 29.89 in 3.1 mi NNW 4.5 mph - N/A Rain Light Rain Showers
9:30 AM 60.8 °F 60.8 °F 100% 29.89 in 3.1 mi NNW 6.7 mph - N/A Rain Light Rain Showers
10:00 AM 60.8 °F 60.8 °F 100% 29.89 in 6.2 mi North 8.9 mph - N/A Rain Light Rain Showers
10:30 AM 60.8 °F 60.8 °F 100% 29.89 in 6.2 mi North 6.7 mph - N/A Rain Light Rain Showers
11:00 AM 62 °F 59 °F 87% 29.88 in 12 mi NE 2.2 mph - - Rain Light Rain Showers
11:00 AM 62.6 °F 60.8 °F 94% 29.89 in 6.2 mi North 4.5 mph - N/A Rain Light Rain Showers
11:30 AM 62.6 °F 60.8 °F 94% 29.89 in 6.2 mi NNW 4.5 mph - N/A Rain Light Rain Showers
12:00 PM 62.6 °F 60.8 °F 94% 29.89 in 6.2 mi NNW 4.5 mph - N/A Rain Light Rain Showers
12:30 PM 64.4 °F 60.8 °F 88% 29.89 in 6.2 mi North 4.5 mph - N/A   Mostly Cloudy
1:00 PM 64.4 °F 60.8 °F 88% 29.92 in 6.2 mi NNW 6.7 mph - N/A   Mostly Cloudy
1:30 PM 66.2 °F 60.8 °F 83% 29.92 in 6.2 mi WNW 6.7 mph - N/A   Mostly Cloudy
2:00 PM 66 °F 59 °F 72% 29.89 in 31 mi WNW 4.5 mph - - Rain Light Rain Showers
2:00 PM 66.2 °F 59.0 °F 78% 29.92 in 6.2 mi NNW 4.5 mph - N/A   Mostly Cloudy
2:30 PM 66.2 °F 59.0 °F 78% 29.92 in 6.2 mi North 4.5 mph - N/A   Mostly Cloudy
3:00 PM 66.2 °F 60.8 °F 83% 29.92 in 6.2 mi Variable 2.2 mph - N/A   Mostly Cloudy
3:30 PM 66.2 °F 60.8 °F 83% 29.92 in 6.2 mi North 6.7 mph - N/A Rain Light Rain Showers
4:00 PM 66.2 °F 60.8 °F 83% 29.92 in 6.2 mi Variable 2.2 mph - N/A Rain Light Rain Showers
4:30 PM 64.4 °F 62.6 °F 94% 29.92 in 6.2 mi Variable 2.2 mph - N/A Rain Light Rain Showers
5:00 PM 64 °F 60 °F 82% 29.89 in 31 mi West 4.5 mph - - Rain Light Rain Showers
5:00 PM 62.6 °F 60.8 °F 94% 29.92 in 3.7 mi Variable 2.2 mph - N/A Rain Light Rain Showers
5:30 PM 62.6 °F 62.6 °F 100% 29.92 in 6.2 mi West 6.7 mph - N/A Rain Light Rain Showers
6:00 PM 62.6 °F 62.6 °F 100% 29.92 in 6.2 mi West 4.5 mph - N/A   Mostly Cloudy
6:30 PM 64.4 °F 62.6 °F 94% 29.92 in 6.2 mi WSW 6.7 mph - N/A Rain Light Rain Showers
7:00 PM 64.4 °F 60.8 °F 88% 29.92 in 6.2 mi West 6.7 mph - N/A Rain Light Rain Showers
7:30 PM 62.6 °F 60.8 °F 94% 29.92 in 6.2 mi West 4.5 mph - N/A   Scattered Clouds
8:00 PM 62.6 °F 60.8 °F 94% 29.92 in 6.2 mi Variable 2.2 mph - N/A   Partly Cloudy
8:30 PM 60.8 °F 60.8 °F 100% 29.92 in - SSE 4.5 mph - N/A   Clear
9:00 PM 59.0 °F 59.0 °F 100% 29.92 in 3.1 mi South 4.5 mph - N/A   Partly Cloudy
9:30 PM 59.0 °F 59.0 °F 100% 29.92 in 1.7 mi South 4.5 mph - N/A   Partly Cloudy
10:00 PM 59.0 °F 59.0 °F 100% 29.92 in 1.7 mi South 4.5 mph - N/A   Partly Cloudy
10:30 PM 60.8 °F 60.8 °F 100% 29.92 in 1.6 mi SSW 2.2 mph - N/A Fog Fog
11:00 PM 58 °F 58 °F 100% 29.92 in - Calm Calm - -  
11:00 PM 59.0 °F 59.0 °F 100% 29.92 in 0.1 mi SE 2.2 mph - N/A Fog Fog
11:30 PM 57.2 °F 57.2 °F 100% 29.92 in 0.2 mi SSE 4.5 mph - N/A Fog Fog